| time (UTC) | temp F | wind direction | speed MPH | gust MPH | rain 1hr in | rain 24hr in | rain mn in | humidity % | barometer mb |
| 20260505060900 | 57 | 121 | 15.0 | 15.0 | 0.00 | 0.00 | 0.00 | 55 | 1011.9 |
| 20260505060001 | 57 | 128 | 7.0 | 15.0 | 0.00 | 0.00 | 0.00 | 55 | 1012.0 |
| 20260505055400 | 57 | 132 | 7.0 | 13.0 | 0.00 | 0.00 | 0.00 | 55 | 1012.1 |
| 20260505054501 | 57 | 149 | 10.0 | 20.0 | 0.00 | 0.00 | 0.00 | 56 | 1012.0 |
| 20260505053621 | 57 | 160 | 11.0 | 20.0 | 0.00 | 0.00 | 0.00 | 56 | 1011.8 |
| 20260505052701 | 57 | 151 | 8.0 | 24.0 | 0.00 | 0.00 | 0.00 | 56 | 1011.7 |
| 20260505051800 | 57 | 167 | 8.0 | 24.0 | 0.00 | 0.00 | 0.00 | 57 | 1011.7 |
| 20260505050900 | 57 | 179 | 12.0 | 24.0 | 0.00 | 0.00 | 0.00 | 56 | 1011.6 |
| 20260505040901 | 60 | 165 | 8.0 | 13.0 | 0.00 | 0.00 | 0.00 | 49 | 1010.5 |
| 20260505040000 | 61 | 144 | 6.0 | 11.0 | 0.00 | 0.00 | 0.00 | 47 | 1010.5 |
| 20260505035422 | 61 | 132 | 5.0 | 9.0 | 0.00 | 0.00 | 0.00 | 50 | 1010.4 |
| 20260505034500 | 62 | 116 | 5.0 | 10.0 | 0.00 | 0.00 | 0.00 | 49 | 1010.3 |
| 20260505033600 | 62 | 130 | 8.0 | 14.0 | 0.00 | 0.00 | 0.00 | 46 | 1010.1 |
| 20260505032701 | 62 | 119 | 6.0 | 13.0 | 0.00 | 0.00 | 0.00 | 48 | 1010.0 |
| 20260505031800 | 62 | 134 | 6.0 | 13.0 | 0.00 | 0.00 | 0.00 | 47 | 1009.9 |
| 20260505030900 | 62 | 140 | 5.0 | 9.0 | 0.00 | 0.00 | 0.00 | 47 | 1009.7 |
| 20260505030000 | 63 | 121 | 6.0 | 14.0 | 0.00 | 0.00 | 0.00 | 45 | 1009.5 |
| 20260505025401 | 63 | 124 | 8.0 | 14.0 | 0.00 | 0.00 | 0.00 | 45 | 1009.4 |
| 20260505024501 | 63 | 120 | 6.0 | 13.0 | 0.00 | 0.00 | 0.00 | 45 | 1009.3 |
| 20260505023600 | 64 | 119 | 8.0 | 14.0 | 0.00 | 0.00 | 0.00 | 46 | 1009.2 |
| 20260505022700 | 64 | 122 | 6.0 | 13.0 | 0.00 | 0.00 | 0.00 | 44 | 1009.1 |
| 20260505021822 | 64 | 104 | 6.0 | 13.0 | 0.00 | 0.00 | 0.00 | 39 | 1008.9 |
| 20260505020921 | 65 | 99 | 7.0 | 14.0 | 0.00 | 0.00 | 0.00 | 39 | 1008.8 |
| 20260505020001 | 65 | 102 | 7.0 | 14.0 | 0.00 | 0.00 | 0.00 | 39 | 1008.8 |
| 20260505015400 | 66 | 96 | 9.0 | 16.0 | 0.00 | 0.00 | 0.00 | 39 | 1008.9 |
| 20260505014521 | 66 | 98 | 8.0 | 15.0 | 0.00 | 0.00 | 0.00 | 38 | 1008.8 |
| 20260505013600 | 66 | 99 | 7.0 | 16.0 | 0.00 | 0.00 | 0.00 | 38 | 1008.8 |
| 20260505012700 | 66 | 94 | 8.0 | 16.0 | 0.00 | 0.00 | 0.00 | 38 | 1008.9 |
| 20260505011801 | 66 | 85 | 10.0 | 22.0 | 0.00 | 0.00 | 0.00 | 38 | 1008.9 |
| 20260505010900 | 67 | 86 | 12.0 | 22.0 | 0.00 | 0.00 | 0.00 | 38 | 1008.9 |
| 20260505010000 | 69 | 107 | 7.0 | 19.0 | 0.00 | 0.00 | 0.00 | 34 | 1008.9 |
| 20260505005401 | 70 | 106 | 6.0 | 10.0 | 0.00 | 0.00 | 0.00 | 31 | 1008.8 |
| 20260505004500 | 70 | 110 | 6.0 | 10.0 | 0.00 | 0.00 | 0.00 | 30 | 1008.8 |
| 20260505003600 | 70 | 111 | 5.0 | 11.0 | 0.00 | 0.00 | 0.00 | 31 | 1008.7 |
| 20260505002700 | 70 | 98 | 6.0 | 11.0 | 0.00 | 0.00 | 0.00 | 31 | 1008.8 |
| 20260505001801 | 70 | 166 | 3.0 | 9.0 | 0.00 | 0.00 | 0.00 | 31 | 1008.8 |
| 20260505000900 | 69 | 229 | 4.0 | 8.0 | 0.00 | 0.00 | 0.00 | 32 | 1008.8 |
| 20260505000001 | 70 | 280 | 4.0 | 9.0 | 0.00 | 0.00 | 0.00 | 32 | 1008.9 |
| 20260504235400 | 70 | 288 | 6.0 | 13.0 | 0.00 | 0.00 | 0.00 | 31 | 1009.0 |
| 20260504234501 | 70 | 276 | 8.0 | 13.0 | 0.00 | 0.00 | 0.00 | 32 | 1009.0 |
| 20260504233601 | 69 | 240 | 8.0 | 15.0 | 0.00 | 0.00 | 0.00 | 33 | 1008.9 |
| 20260504232721 | 68 | 233 | 9.0 | 15.0 | 0.00 | 0.00 | 0.00 | 32 | 1008.9 |
| 20260504231800 | 68 | 207 | 11.0 | 18.0 | 0.00 | 0.00 | 0.00 | 33 | 1009.0 |
| 20260504230900 | 70 | 261 | 7.0 | 19.0 | 0.00 | 0.00 | 0.00 | 32 | 1008.9 |
| 20260504230022 | 71 | 347 | 3.0 | 11.0 | 0.00 | 0.00 | 0.00 | 31 | 1008.9 |
| 20260504225401 | 71 | 344 | 6.0 | 11.0 | 0.00 | 0.00 | 0.00 | 31 | 1008.9 |
| 20260504224501 | 71 | 342 | 8.0 | 20.0 | 0.00 | 0.00 | 0.00 | 32 | 1009.1 |
| 20260504223601 | 72 | 7 | 11.0 | 21.0 | 0.00 | 0.00 | 0.00 | 31 | 1009.0 |
| 20260504222701 | 73 | 16 | 7.0 | 16.0 | 0.00 | 0.00 | 0.00 | 31 | 1009.0 |
| 20260504221800 | 73 | 3 | 3.0 | 6.0 | 0.00 | 0.00 | 0.00 | 30 | 1009.1 |
| 20260504220900 | 73 | 259 | 3.0 | 16.0 | 0.00 | 0.00 | 0.00 | 29 | 1008.9 |
| 20260504220001 | 72 | 212 | 5.0 | 16.0 | 0.00 | 0.00 | 0.00 | 30 | 1009.0 |
| 20260504215400 | 71 | 218 | 8.0 | 16.0 | 0.00 | 0.00 | 0.00 | 31 | 1009.1 |
| 20260504214500 | 69 | 204 | 9.0 | 15.0 | 0.00 | 0.00 | 0.00 | 33 | 1009.3 |
| 20260504213601 | 69 | 199 | 11.0 | 16.0 | 0.00 | 0.00 | 0.00 | 34 | 1009.4 |
| 20260504212700 | 69 | 199 | 11.0 | 16.0 | 0.00 | 0.00 | 0.00 | 34 | 1009.4 |
| 20260504211800 | 69 | 200 | 12.0 | 16.0 | 0.00 | 0.00 | 0.00 | 34 | 1009.3 |
| 20260504210900 | 71 | 182 | 9.0 | 15.0 | 0.00 | 0.00 | 0.00 | 32 | 1009.5 |
| 20260504210001 | 72 | 124 | 6.0 | 15.0 | 0.00 | 0.00 | 0.00 | 31 | 1009.6 |
| 20260504205400 | 72 | 121 | 7.0 | 13.0 | 0.00 | 0.00 | 0.00 | 31 | 1009.5 |
| 20260504204500 | 73 | 119 | 8.0 | 15.0 | 0.00 | 0.00 | 0.00 | 30 | 1009.6 |
| 20260504203600 | 73 | 121 | 10.0 | 15.0 | 0.00 | 0.00 | 0.00 | 29 | 1009.5 |
| 20260504202700 | 74 | 119 | 9.0 | 16.0 | 0.00 | 0.00 | 0.00 | 27 | 1009.6 |
| 20260504201801 | 73 | 127 | 9.0 | 16.0 | 0.00 | 0.00 | 0.00 | 28 | 1009.6 |
| 20260504200901 | 73 | 113 | 8.0 | 14.0 | 0.00 | 0.00 | 0.00 | 29 | 1009.7 |
| 20260504200001 | 73 | 108 | 7.0 | 15.0 | 0.00 | 0.00 | 0.00 | 30 | 1009.8 |
| 20260504195401 | 72 | 103 | 9.0 | 15.0 | 0.00 | 0.00 | 0.00 | 29 | 1009.8 |
| 20260504194501 | 73 | 107 | 8.0 | 15.0 | 0.00 | 0.00 | 0.00 | 28 | 1009.9 |
| 20260504193621 | 74 | 95 | 8.0 | 15.0 | 0.00 | 0.00 | 0.00 | 31 | 1010.0 |
| 20260504192700 | 73 | 95 | 9.0 | 14.0 | 0.00 | 0.00 | 0.00 | 28 | 1010.1 |
| 20260504191800 | 72 | 98 | 9.0 | 15.0 | 0.00 | 0.00 | 0.00 | 31 | 1010.2 |
| 20260504190901 | 72 | 94 | 11.0 | 18.0 | 0.00 | 0.00 | 0.00 | 30 | 1010.3 |
| 20260504190001 | 72 | 101 | 10.0 | 18.0 | 0.00 | 0.00 | 0.00 | 31 | 1010.5 |
| 20260504185422 | 72 | 102 | 9.0 | 16.0 | 0.00 | 0.00 | 0.00 | 31 | 1010.6 |
| 20260504184522 | 72 | 100 | 8.0 | 14.0 | 0.00 | 0.00 | 0.00 | 31 | 1010.6 |
| 20260504183622 | 72 | 94 | 9.0 | 18.0 | 0.00 | 0.00 | 0.00 | 32 | 1010.9 |
| 20260504182701 | 72 | 94 | 9.0 | 18.0 | 0.00 | 0.00 | 0.00 | 33 | 1011.0 |
| 20260504181822 | 71 | 99 | 10.0 | 15.0 | 0.00 | 0.00 | 0.00 | 32 | 1011.0 |
| 20260504180900 | 71 | 98 | 9.0 | 16.0 | 0.00 | 0.00 | 0.00 | 33 | 1011.2 |
| 20260504180001 | 71 | 99 | 8.0 | 18.0 | 0.00 | 0.00 | 0.00 | 33 | 1011.3 |
| 20260504175400 | 71 | 92 | 8.0 | 18.0 | 0.00 | 0.00 | 0.00 | 33 | 1011.4 |
| 20260504174501 | 70 | 90 | 8.0 | 14.0 | 0.00 | 0.00 | 0.00 | 34 | 1011.5 |
| 20260504173600 | 69 | 97 | 8.0 | 14.0 | 0.00 | 0.00 | 0.00 | 35 | 1011.6 |
| 20260504172701 | 69 | 93 | 9.0 | 15.0 | 0.00 | 0.00 | 0.00 | 34 | 1011.7 |
| 20260504171801 | 68 | 88 | 8.0 | 15.0 | 0.00 | 0.00 | 0.00 | 36 | 1011.9 |
| 20260504170901 | 68 | 93 | 7.0 | 12.0 | 0.00 | 0.00 | 0.00 | 37 | 1011.9 |
| 20260504150901 | 63 | 125 | 2.0 | 6.0 | 0.00 | 0.00 | 0.00 | 51 | 1012.6 |
| 20260504140923 | 58 | 93 | 2.0 | 5.0 | 0.00 | 0.00 | 0.00 | 55 | 1012.7 |
| 20260504081823 | 55 | 33 | 1.0 | 4.0 | 0.00 | 0.00 | 0.00 | 49 | 1012.2 |
| 20260504080902 | 55 | 22 | 3.0 | 8.0 | 0.00 | 0.00 | 0.00 | 46 | 1012.3 |